FW1098 Weather Reports


time (UTC)temp
F
wind
direction
speed
knots
gust
knots
rain 1hr
in
rain 24hr
in
rain mn
in
humidity
%
barometer
mb
20260903104538 72 41 0.0 0.0 0.00 0.00 0.00 92 1017.7
20260903103036 72 41 0.0 0.0 0.00 0.00 0.00 92 1017.3
20260903101536 73 41 0.0 0.0 0.00 0.00 0.00 92 1017.3
20260903100037 73 41 0.0 0.0 0.00 0.00 0.00 92 1017.3
20260903094534 73 41 0.0 0.0 0.00 0.00 0.00 92 1017.3
20260903093032 73 41 0.0 0.0 0.00 0.00 0.00 91 1017.2
20260903091530 74 41 0.0 0.0 0.00 0.00 0.00 91 1017.1
20260903090029 74 41 0.0 0.0 0.00 0.00 0.00 91 1017.1
20260903084528 74 41 0.0 0.0 0.00 0.00 0.00 91 1017.0
20260903083026 74 41 0.0 0.0 0.00 0.00 0.00 91 1016.9
20260903081526 75 41 0.0 0.0 0.00 0.00 0.00 91 1016.8
20260903080026 75 41 0.0 0.0 0.00 0.00 0.00 91 1016.7
20260903074523 75 41 0.0 0.0 0.00 0.00 0.00 91 1016.5
20260903073023 75 41 0.0 0.0 0.00 0.00 0.00 91 1016.4
20260903071526 76 41 0.0 0.0 0.00 0.00 0.00 91 1016.4
20260903070020 76 41 0.0 0.0 0.00 0.00 0.00 91 1016.4
20260903064519 76 41 0.0 0.0 0.00 0.00 0.00 91 1016.4
20260903063020 76 41 0.0 0.0 0.00 0.00 0.00 91 1016.3
20260903061528 76 41 0.0 0.0 0.00 0.00 0.00 90 1016.3
20260903060016 77 41 0.0 0.0 0.00 0.00 0.00 90 1016.4
20260903054518 77 41 0.0 0.0 0.00 0.00 0.00 90 1016.6
20260903053011 77 41 0.0 0.0 0.00 0.00 0.00 90 1016.8
20260903051510 77 41 0.0 0.0 0.00 0.00 0.00 89 1016.9
20260903050009 77 41 0.0 0.0 0.00 0.00 0.00 89 1017.2
20260903044507 78 41 0.0 0.0 0.00 0.00 0.00 88 1017.2
20260903043006 78 41 0.0 0.0 0.00 0.00 0.00 88 1017.2
20260903041505 78 41 0.0 0.0 0.00 0.00 0.00 88 1017.1
20260903040003 78 41 0.0 0.0 0.00 0.00 0.00 86 1017.3
20260903034503 79 41 0.0 0.0 0.00 0.00 0.00 86 1017.2
20260903033005 79 41 0.0 0.0 0.00 0.00 0.00 86 1017.4
20260903031507 79 41 0.0 0.0 0.00 0.00 0.00 84 1017.4
20260903030002 79 41 0.0 0.0 0.00 0.00 0.00 84 1017.5
20260903024600 80 41 0.0 0.0 0.00 0.00 0.00 83 1017.4
20260903023100 80 41 0.0 0.0 0.00 0.00 0.00 83 1017.3
20260903021600 81 41 0.0 0.0 0.00 0.00 0.00 82 1017.5
20260903020059 81 41 0.0 0.0 0.00 0.00 0.00 81 1017.3
20260903014615 81 41 0.0 0.0 0.00 0.00 0.00 81 1017.2
20260903013104 82 41 0.0 0.0 0.00 0.00 0.00 80 1017.0
20260903011619 82 41 0.0 0.0 0.00 0.00 0.00 79 1016.9
20260903010109 83 41 0.0 0.0 0.00 0.00 0.00 79 1016.5
20260903004604 83 41 0.0 0.0 0.00 0.00 0.00 78 1016.4
20260903003108 84 41 0.0 0.0 0.00 0.00 0.00 76 1016.3
20260903001601 85 41 0.0 0.0 0.00 0.00 0.00 75 1016.2
20260903000055 85 41 0.0 0.0 0.00 0.00 0.00 75 1016.1
20260902234557 85 41 0.0 0.0 0.00 0.00 0.00 76 1016.1
20260902233054 86 41 0.0 0.0 0.00 0.00 0.00 74 1016.2
20260902231555 87 41 0.0 0.0 0.00 0.00 0.00 76 1016.0
20260902230059 88 41 0.0 0.0 0.00 0.00 0.00 75 1016.1
20260902224558 89 41 0.0 0.0 0.00 0.00 0.00 74 1016.0
20260902223052 90 41 0.0 0.0 0.00 0.00 0.00 72 1015.9
20260902221552 90 41 0.0 0.0 0.00 0.00 0.00 70 1016.0
20260902220057 91 41 0.0 0.0 0.00 0.00 0.00 70 1016.1
20260902214551 91 41 0.0 0.0 0.00 0.00 0.00 65 1016.2
20260902213048 91 41 0.0 0.0 0.00 0.00 0.00 69 1016.2
20260902211549 93 41 0.0 0.0 0.00 0.00 0.00 62 1016.1
20260902210048 93 41 0.0 0.9 0.00 0.00 0.00 64 1016.2
20260902204546 92 41 0.0 0.9 0.00 0.00 0.00 63 1016.3
20260902203045 94 41 0.0 3.5 0.00 0.00 0.00 57 1016.3
20260902201553 95 243 1.7 4.3 0.00 0.00 0.00 54 1016.5
20260902200045 96 336 0.9 3.5 0.00 0.00 0.00 53 1016.8
20260902194550 94 12 0.9 4.3 0.00 0.00 0.00 55 1016.9
20260902193038 95 313 0.0 3.5 0.00 0.00 0.00 55 1016.8
20260902191537 95 355 0.9 2.6 0.00 0.00 0.00 56 1017.0
20260902190033 94 348 0.9 5.2 0.00 0.00 0.00 59 1017.2
20260902184539 94 75 1.7 6.1 0.00 0.00 0.00 55 1017.3
20260902183030 94 233 0.0 4.3 0.00 0.00 0.00 57 1017.6
20260902181529 94 258 0.9 3.5 0.00 0.00 0.00 55 1017.6
20260902180025 93 232 1.7 5.2 0.00 0.00 0.00 57 1017.7
20260902174524 91 229 0.0 3.5 0.00 0.00 0.00 62 1017.9
20260902173026 92 224 0.9 4.3 0.00 0.00 0.00 62 1018.2
20260902171521 92 209 0.0 4.3 0.00 0.00 0.00 63 1018.3
20260902170020 90 194 0.9 4.3 0.00 0.00 0.00 64 1018.5
20260902164517 91 267 1.7 2.6 0.00 0.00 0.00 64 1018.6
20260902163016 91 318 0.9 7.0 0.00 0.00 0.00 64 1018.8
20260902161513 90 296 1.7 4.3 0.00 0.00 0.00 65 1018.8
20260902160013 89 348 0.9 4.3 0.00 0.00 0.00 68 1018.9
20260902154509 88 205 0.9 3.5 0.00 0.00 0.00 70 1019.0
20260902153005 87 63 0.9 4.3 0.00 0.00 0.00 73 1019.1
20260902151504 87 198 0.9 2.6 0.00 0.00 0.00 73 1019.1
20260902144559 86 195 1.7 2.6 0.00 0.00 0.00 73 1019.1
20260902143055 85 187 0.9 6.1 0.00 0.00 0.00 75 1018.9
20260902141551 82 250 1.7 5.2 0.00 0.00 0.00 80 1018.8
20260902140048 80 227 0.0 3.5 0.00 0.00 0.00 84 1018.9
20260902134542 78 220 0.0 2.6 0.00 0.00 0.00 92 1019.0
20260902133038 77 216 0.9 3.5 0.00 0.00 0.00 95 1018.9
20260902131540 76 216 0.0 1.7 0.00 0.00 0.00 96 1018.9
20260902130034 75 216 0.0 1.7 0.00 0.00 0.00 97 1018.9
20260902124533 74 216 0.0 0.0 0.00 0.00 0.00 96 1019.2
20260902123031 73 216 0.0 0.0 0.00 0.00 0.00 95 1019.3
20260902121529 72 216 0.0 0.0 0.00 0.00 0.00 95 1019.2
20260902120028 72 216 0.0 0.0 0.00 0.00 0.00 94 1019.1
20260902114529 72 216 0.0 0.0 0.00 0.00 0.00 94 1019.1
20260902113024 72 216 0.0 0.0 0.00 0.00 0.00 94 1018.8
20260902111522 72 216 0.0 0.0 0.00 0.00 0.00 94 1018.8
20260902110030 72 216 0.0 0.0 0.00 0.00 0.00 94 1018.5